Location: Carri�res
(48.9069°N, 2.1792°E)
Time: 13:21:09
(UTC+00:00)

Meteor 2-1 Rocket - Pass Details

Date: 17 January 2021
Orbit: 827 x 910 km, 81.3° (Epoch: 25 February)

Event Time Altitude Azimuth Distance (km) Brightness Sun altitude
Rises 18:59:35 0° 346° (NNW) 3,437 7.5 -24.8°
Reaches altitude 10° 19:02:02 10° 345° (NNW) 2,485 6.8 -25.2°
Maximum altitude 19:07:37 73° 262° (W) 880 4.3 -26.1°
Drops below altitude 10° 19:13:06 10° 179° (S) 2,430 6.6 -27.0°
Sets 19:15:29 0° 177° (S) 3,355 7.3 -27.4°
